When you browse on this site, cookies collect data to enhance your experience and personalize the content and advertising you see.
Visit our Privacy Policy to learn more. By continuing to use the site, you agree to this use of cookies and data.
  • In Lithuania
  • List of Countries
  • For 7 days
  • Water Temperature
  • Weather Map
  • Weather Widgets
  • user-avatar
    Login

    Hourly Weather Campo Grande

    Today, 16 September, Monday

    Time Temperature Precipitation Wind Pressure Humidity
    00:00 +29°C° 0 mm 3 mps 708 mmHg 20%
    01:00 +29°C° 0 mm 3 mps 708 mmHg 20%
    02:00 +29°C° 0 mm 4 mps 708 mmHg 21%
    03:00 +29°C° 0 mm 4 mps 708 mmHg 21%
    04:00 +29°C° 0 mm 4 mps 708 mmHg 21%
    05:00 +28°C° 0 mm 4 mps 708 mmHg 22%
    06:00 +30°C° 0 mm 5 mps 709 mmHg 19%
    07:00 +34°C° 0 mm 6 mps 710 mmHg 17%
    08:00 +36°C° 0 mm 7 mps 711 mmHg 15%
    09:00 +39°C° 0 mm 6 mps 711 mmHg 14%
    10:00 +41°C° 0 mm 6 mps 711 mmHg 12%
    11:00 +42°C° 0 mm 5 mps 711 mmHg 11%
    12:00 +43°C° 0 mm 4 mps 710 mmHg 11%
    13:00 +43°C° 0 mm 4 mps 709 mmHg 10%
    14:00 +44°C° 0 mm 3 mps 708 mmHg 10%
    15:00 +42°C° 0 mm 3 mps 708 mmHg 10%
    16:00 +40°C° 0 mm 2 mps 708 mmHg 11%
    17:00 +39°C° 0 mm 2 mps 708 mmHg 12%
    18:00 +37°C° 0 mm 2 mps 708 mmHg 13%
    19:00 +35°C° 0 mm 2 mps 709 mmHg 15%
    20:00 +32°C° 0 mm 2 mps 709 mmHg 16%
    21:00 +31°C° 0 mm 3 mps 709 mmHg 16%
    22:00 +32°C° 0 mm 4 mps 709 mmHg 16%
    23:00 +30°C° 0 mm 5 mps 709 mmHg 16%

    Tomorrow, 17 September, Tuesday

    Time Temperature Precipitation Wind Pressure Humidity
    00:00 +29°C° 0 mm 4 mps 708 mmHg 17%
    01:00 +28°C° 0 mm 3 mps 708 mmHg 17%
    02:00 +28°C° 0 mm 3 mps 707 mmHg 18%
    03:00 +28°C° 0 mm 3 mps 707 mmHg 18%
    04:00 +28°C° 0 mm 3 mps 707 mmHg 18%
    05:00 +28°C° 0 mm 3 mps 707 mmHg 17%
    06:00 +30°C° 0 mm 4 mps 708 mmHg 15%
    07:00 +34°C° 0 mm 5 mps 709 mmHg 13%
    08:00 +36°C° 0 mm 5 mps 709 mmHg 11%
    09:00 +39°C° 0 mm 5 mps 709 mmHg 11%
    10:00 +41°C° 0 mm 5 mps 709 mmHg 10%
    11:00 +43°C° 0 mm 4 mps 708 mmHg 9%
    12:00 +43°C° 0 mm 4 mps 708 mmHg 9%
    13:00 +44°C° 0 mm 4 mps 707 mmHg 9%
    14:00 +44°C° 0 mm 4 mps 706 mmHg 9%
    15:00 +43°C° 0 mm 4 mps 706 mmHg 10%
    16:00 +42°C° 0 mm 3 mps 705 mmHg 11%
    17:00 +39°C° 0 mm 3 mps 705 mmHg 12%
    18:00 +37°C° 0 mm 3 mps 705 mmHg 14%
    19:00 +35°C° 0 mm 2 mps 706 mmHg 17%
    20:00 +31°C° 0 mm 2 mps 706 mmHg 19%
    21:00 +30°C° 0 mm 2 mps 706 mmHg 24%
    22:00 +29°C° 0 mm 2 mps 706 mmHg 28%
    23:00 +28°C° 0 mm 3 mps 706 mmHg 33%

    Day after tomorrow, 18 September, Wednesday

    Time Temperature Precipitation Wind Pressure Humidity
    00:00 +28°C° 0 mm 2 mps 705 mmHg 36%
    01:00 +27°C° 0 mm 2 mps 705 mmHg 39%
    02:00 +26°C° 0 mm 2 mps 705 mmHg 43%
    03:00 +26°C° 0 mm 2 mps 705 mmHg 42%
    04:00 +26°C° 0 mm 2 mps 705 mmHg 42%
    05:00 +26°C° 0 mm 2 mps 705 mmHg 41%
    06:00 +28°C° 0 mm 2 mps 706 mmHg 37%
    07:00 +31°C° 0 mm 2 mps 706 mmHg 33%
    08:00 +34°C° 0 mm 2 mps 707 mmHg 29%
    09:00 +36°C° 0 mm 2 mps 707 mmHg 25%
    10:00 +39°C° 0 mm 2 mps 707 mmHg 20%
    11:00 +41°C° 0 mm 2 mps 707 mmHg 16%
    12:00 +43°C° 0 mm 3 mps 706 mmHg 15%
    13:00 +43°C° 0 mm 4 mps 706 mmHg 14%
    14:00 +45°C° 0 mm 5 mps 705 mmHg 13%
    15:00 +42°C° 0 mm 4 mps 704 mmHg 13%
    16:00 +41°C° 0 mm 4 mps 704 mmHg 14%
    17:00 +39°C° 0 mm 3 mps 703 mmHg 15%
    18:00 +37°C° 0 mm 2 mps 704 mmHg 18%
    19:00 +35°C° 0 mm 2 mps 704 mmHg 21%
    20:00 +32°C° 0 mm 1 mps 704 mmHg 24%
    21:00 +31°C° 0 mm 1 mps 704 mmHg 26%
    22:00 +30°C° 0 mm 1 mps 704 mmHg 28%
    23:00 +29°C° 0 mm 1 mps 704 mmHg 30%

    19 September, Thursday

    Time Temperature Precipitation Wind Pressure Humidity
    00:00 +29°C° 0 mm 2 mps 704 mmHg 32%
    01:00 +28°C° 0 mm 2 mps 704 mmHg 35%
    02:00 +27°C° 0 mm 3 mps 703 mmHg 37%
    03:00 +27°C° 0 mm 3 mps 704 mmHg 37%
    04:00 +27°C° 0 mm 3 mps 704 mmHg 37%
    05:00 +27°C° 0 mm 3 mps 704 mmHg 36%
    06:00 +30°C° 0 mm 3 mps 704 mmHg 30%
    07:00 +34°C° 0 mm 4 mps 705 mmHg 24%
    08:00 +37°C° 0 mm 4 mps 706 mmHg 18%
    09:00 +40°C° 0 mm 5 mps 706 mmHg 16%
    10:00 +44°C° 0 mm 6 mps 705 mmHg 13%
    11:00 +46°C° 0 mm 7 mps 705 mmHg 11%
    12:00 +46°C° 0 mm 7 mps 705 mmHg 10%
    13:00 +46°C° 0 mm 7 mps 704 mmHg 10%
    14:00 +47°C° 0 mm 7 mps 703 mmHg 9%
    15:00 +46°C° 0 mm 6 mps 703 mmHg 10%
    16:00 +43°C° 0 mm 5 mps 703 mmHg 12%
    17:00 +42°C° 0 mm 5 mps 703 mmHg 13%
    18:00 +40°C° 0 mm 4 mps 703 mmHg 15%
    19:00 +37°C° 0 mm 3 mps 704 mmHg 17%
    20:00 +35°C° 0 mm 2 mps 704 mmHg 19%
    21:00 +35°C° 0 mm 2 mps 704 mmHg 20%
    22:00 +35°C° 0 mm 2 mps 704 mmHg 20%
    23:00 +35°C° 0 mm 2 mps 704 mmHg 21%

    20 September, Friday

    Time Temperature Precipitation Wind Pressure Humidity
    00:00 +34°C° 0 mm 2 mps 704 mmHg 21%
    01:00 +34°C° 0 mm 3 mps 704 mmHg 22%
    02:00 +34°C° 0 mm 3 mps 704 mmHg 22%
    03:00 +34°C° 0 mm 3 mps 705 mmHg 23%
    04:00 +33°C° 0 mm 4 mps 705 mmHg 24%
    05:00 +33°C° 0 mm 4 mps 705 mmHg 25%
    06:00 +34°C° 0 mm 5 mps 706 mmHg 24%
    07:00 +36°C° 0 mm 5 mps 707 mmHg 22%
    08:00 +39°C° 0 mm 6 mps 707 mmHg 21%
    09:00 +40°C° 0 mm 7 mps 708 mmHg 19%
    10:00 +43°C° 0 mm 7 mps 708 mmHg 17%
    11:00 +45°C° 0 mm 8 mps 708 mmHg 16%
    12:00 +44°C° 0 mm 7 mps 707 mmHg 16%
    13:00 +44°C° 0 mm 7 mps 707 mmHg 17%
    14:00 +42°C° 0 mm 6 mps 706 mmHg 17%
    15:00 +41°C° 0 mm 5 mps 706 mmHg 18%
    16:00 +40°C° 0 mm 4 mps 706 mmHg 19%
    17:00 +40°C° 0 mm 4 mps 706 mmHg 20%
    18:00 +37°C° 0 mm 3 mps 706 mmHg 23%
    19:00 +35°C° 0 mm 3 mps 707 mmHg 26%
    20:00 +34°C° 0 mm 3 mps 707 mmHg 29%
    21:00 +33°C° 0 mm 3 mps 708 mmHg 33%
    22:00 +32°C° 0 mm 4 mps 708 mmHg 37%
    23:00 +30°C° 0 mm 4 mps 708 mmHg 41%

    21 September, Saturday

    Time Temperature Precipitation Wind Pressure Humidity
    00:00 +28°C° 0 mm 4 mps 708 mmHg 45%
    01:00 +27°C° 0 mm 5 mps 708 mmHg 50%
    02:00 +26°C° 0 mm 5 mps 708 mmHg 54%
    03:00 +25°C° 0 mm 4 mps 708 mmHg 57%
    04:00 +23°C° 0 mm 4 mps 708 mmHg 59%
    05:00 +22°C° 0 mm 4 mps 708 mmHg 61%
    06:00 +25°C° 0 mm 4 mps 709 mmHg 57%
    07:00 +27°C° 0 mm 4 mps 710 mmHg 53%
    08:00 +28°C° 0 mm 4 mps 710 mmHg 49%
    09:00 +31°C° 0 mm 3 mps 710 mmHg 42%
    10:00 +35°C° 0 mm 3 mps 710 mmHg 35%
    11:00 +38°C° 0 mm 2 mps 710 mmHg 28%
    12:00 +39°C° 0 mm 2 mps 710 mmHg 26%
    13:00 +40°C° 0 mm 2 mps 709 mmHg 23%
    14:00 +41°C° 0 mm 2 mps 708 mmHg 21%
    15:00 +40°C° 0 mm 2 mps 708 mmHg 22%
    16:00 +39°C° 0 mm 3 mps 707 mmHg 22%
    17:00 +38°C° 0 mm 3 mps 707 mmHg 23%
    18:00 +36°C° 0 mm 3 mps 707 mmHg 27%
    19:00 +34°C° 0 mm 2 mps 708 mmHg 30%
    20:00 +32°C° 0 mm 2 mps 708 mmHg 34%
    21:00 +31°C° 0 mm 2 mps 708 mmHg 36%
    22:00 +30°C° 0 mm 2 mps 708 mmHg 38%
    23:00 +29°C° 0 mm 2 mps 708 mmHg 41%
    Show more